UAE2664 LFPG-OMDB

Flight info

Callsign UAE2664
Flight time 7h 20m
Altitude 37000
Route LANVI DCT DEVDI DCT ODINA DCT SRN DCT LOMED DCT NIKMA DCT EKTOL DCT RUTOM DCT SALUN N705 MMA P751 DASUM Y234 FYM M872 BDB Y214 RAPMA DCT KUVSO DCT KATIT DCT PEKEM M628 RIGIL G783 ASPED Q308 KIPOK Q568 IMPED
Aircraft A388/J-SADE2E3FGHIJ3J4J5M1RWXY/LB1D1

Departure

Time 2026-05-07 18:33
Airport Charles de Gaulle International Airport (LFPG)

Arrival

Time 2026-05-08 01:54
Airport Dubai International Airport (OMDB)
Time Latitude Longitude Altitude Speed Heading
2026-05-07 17:24 49.00239 2.56994 0 ft 0 kts 320°
2026-05-07 18:17 49.00230 2.57005 196 ft 4 kts 325°
2026-05-07 18:17 49.00207 2.57023 344 ft 4 kts 342°
2026-05-07 18:17 49.00181 2.57031 365 ft 4 kts 354°
2026-05-07 18:17 49.00161 2.57035 363 ft 4 kts 344°
2026-05-07 18:18 49.00144 2.57049 367 ft 4 kts 306°
2026-05-07 18:18 49.00138 2.57077 363 ft 4 kts 272°
2026-05-07 18:18 49.00139 2.57112 363 ft 2 kts 265°
2026-05-07 18:18 49.00138 2.57094 366 ft 0 kts 265°
2026-05-07 18:26 49.00137 2.57078 363 ft 4 kts 265°
2026-05-07 18:26 49.00128 2.57012 365 ft 8 kts 234°
2026-05-07 18:27 49.00080 2.56986 358 ft 9 kts 176°
2026-05-07 18:27 49.00008 2.56992 359 ft 12 kts 176°
2026-05-07 18:27 48.99921 2.57000 364 ft 14 kts 176°
2026-05-07 18:27 48.99877 2.56990 363 ft 9 kts 217°
2026-05-07 18:28 48.99846 2.56865 367 ft 12 kts 264°
2026-05-07 18:28 48.99836 2.56721 359 ft 15 kts 264°
2026-05-07 18:28 48.99827 2.56563 365 ft 12 kts 265°
2026-05-07 18:28 48.99820 2.56417 360 ft 15 kts 266°
2026-05-07 18:29 48.99813 2.56246 365 ft 17 kts 266°
2026-05-07 18:29 48.99805 2.56118 362 ft 19 kts 265°
2026-05-07 18:29 48.99794 2.55922 364 ft 14 kts 261°
2026-05-07 18:29 48.99752 2.55722 362 ft 16 kts 262°
2026-05-07 18:30 48.99742 2.55538 362 ft 18 kts 266°
2026-05-07 18:30 48.99736 2.55403 359 ft 19 kts 266°
2026-05-07 18:30 48.99723 2.55161 364 ft 15 kts 265°
2026-05-07 18:30 48.99715 2.55099 360 ft 5 kts 229°
2026-05-07 18:31 48.99696 2.55089 362 ft 4 kts 167°
2026-05-07 18:31 48.99672 2.55114 366 ft 6 kts 131°
2026-05-07 18:31 48.99644 2.55182 363 ft 9 kts 114°
2026-05-07 18:31 48.99615 2.55283 366 ft 12 kts 114°
2026-05-07 18:32 48.99582 2.55417 365 ft 15 kts 97°
2026-05-07 18:32 48.99582 2.55478 362 ft 0 kts 85°
2026-05-07 18:32 48.99582 2.55494 362 ft 6 kts 85°
2026-05-07 18:33 48.99606 2.55860 358 ft 77 kts 84°
2026-05-07 18:33 48.99669 2.57081 361 ft 150 kts 85°
2026-05-07 18:33 48.99772 2.58894 447 ft 184 kts 85°
2026-05-07 18:33 48.99851 2.60787 1139 ft 176 kts 85°
2026-05-07 18:34 48.99932 2.62678 1719 ft 183 kts 86°
2026-05-07 18:34 49.00011 2.64664 2146 ft 192 kts 85°
2026-05-07 18:34 49.00125 2.66709 2507 ft 198 kts 84°
2026-05-07 18:34 49.00258 2.68839 2802 ft 203 kts 84°
2026-05-07 18:35 49.00394 2.70986 3174 ft 205 kts 84°
2026-05-07 18:35 49.00518 2.73141 3547 ft 206 kts 84°
2026-05-07 18:35 49.00633 2.75339 3927 ft 208 kts 85°
2026-05-07 18:35 49.00744 2.77539 4303 ft 208 kts 85°
2026-05-07 18:36 49.00627 2.79765 4513 ft 217 kts 99°
2026-05-07 18:36 49.00365 2.82093 4614 ft 229 kts 99°
2026-05-07 18:36 49.00082 2.84612 4802 ft 252 kts 99°
2026-05-07 18:36 48.99780 2.87341 5162 ft 269 kts 99°
2026-05-07 18:37 48.99468 2.90164 5931 ft 272 kts 99°
2026-05-07 18:37 48.99155 2.93013 6731 ft 273 kts 99°
2026-05-07 18:37 48.98840 2.95876 7504 ft 275 kts 98°
2026-05-07 18:37 48.98558 2.98766 8289 ft 277 kts 97°
2026-05-07 18:38 48.98325 3.01683 9063 ft 278 kts 96°
2026-05-07 18:38 48.98103 3.04571 9808 ft 280 kts 96°
2026-05-07 18:38 48.97866 3.07574 10524 ft 283 kts 97°
2026-05-07 18:38 48.97619 3.10594 10979 ft 296 kts 98°
2026-05-07 18:39 48.97354 3.13763 11159 ft 315 kts 98°
2026-05-07 18:39 48.97066 3.17170 11333 ft 334 kts 98°
2026-05-07 18:39 48.96762 3.20736 11807 ft 341 kts 98°
2026-05-07 18:39 48.96455 3.24347 12367 ft 346 kts 98°
2026-05-07 18:40 48.96145 3.27982 12913 ft 351 kts 98°
2026-05-07 18:40 48.95825 3.31718 13436 ft 356 kts 98°
2026-05-07 18:40 48.95502 3.35467 13985 ft 361 kts 98°
2026-05-07 18:40 48.95173 3.39275 14501 ft 365 kts 98°
2026-05-07 18:41 48.94838 3.43136 15059 ft 369 kts 98°
2026-05-07 18:41 48.94500 3.47024 15590 ft 372 kts 97°
2026-05-07 18:41 48.94162 3.50894 16126 ft 375 kts 97°
2026-05-07 18:41 48.93815 3.54849 16656 ft 378 kts 97°
2026-05-07 18:42 48.93515 3.58840 17176 ft 381 kts 95°
2026-05-07 18:42 48.93316 3.62851 17652 ft 384 kts 94°
2026-05-07 18:42 48.93135 3.66946 18158 ft 387 kts 94°
2026-05-07 18:42 48.92943 3.71034 18628 ft 389 kts 94°
2026-05-07 18:43 48.92738 3.75131 19086 ft 392 kts 94°
2026-05-07 18:43 48.92518 3.79307 19522 ft 396 kts 95°
2026-05-07 18:43 48.92293 3.83493 19961 ft 398 kts 95°
2026-05-07 18:43 48.92063 3.87702 20399 ft 401 kts 95°
2026-05-07 18:44 48.91833 3.91883 20818 ft 403 kts 95°
2026-05-07 18:44 48.91596 3.96173 21238 ft 406 kts 95°
2026-05-07 18:44 48.91358 4.00446 21623 ft 410 kts 95°
2026-05-07 18:44 48.91114 4.04793 22039 ft 411 kts 95°
2026-05-07 18:45 48.90869 4.09143 22435 ft 414 kts 95°
2026-05-07 18:45 48.90620 4.13519 22818 ft 416 kts 95°
2026-05-07 18:45 48.90356 4.17909 23196 ft 419 kts 97°
2026-05-07 18:45 48.89775 4.22185 23519 ft 422 kts 107°
2026-05-07 18:46 48.88728 4.26379 23909 ft 423 kts 116°
2026-05-07 18:46 48.87316 4.30306 24272 ft 425 kts 120°
2026-05-07 18:46 48.85860 4.34235 24626 ft 428 kts 120°
2026-05-07 18:46 48.84410 4.38200 24980 ft 430 kts 120°
2026-05-07 18:47 48.82977 4.42129 25339 ft 433 kts 120°
2026-05-07 18:47 48.81491 4.46190 25718 ft 435 kts 120°
2026-05-07 18:47 48.80021 4.50195 26046 ft 439 kts 120°
2026-05-07 18:47 48.78522 4.54268 26449 ft 441 kts 120°
2026-05-07 18:48 48.77012 4.58362 26823 ft 444 kts 120°
2026-05-07 18:48 48.75498 4.62459 27231 ft 447 kts 120°
2026-05-07 18:48 48.73974 4.66579 27624 ft 449 kts 120°
2026-05-07 18:48 48.72455 4.70678 27997 ft 452 kts 119°
2026-05-07 18:49 48.70915 4.74827 28387 ft 455 kts 119°
2026-05-07 18:49 48.69354 4.79025 28761 ft 458 kts 119°
2026-05-07 18:49 48.67781 4.83250 29107 ft 461 kts 119°
2026-05-07 18:49 48.66205 4.87477 29503 ft 464 kts 119°
2026-05-07 18:50 48.64610 4.91746 29879 ft 466 kts 119°
2026-05-07 18:50 48.63012 4.96017 30250 ft 469 kts 119°
2026-05-07 18:50 48.61401 5.00316 30632 ft 472 kts 119°
2026-05-07 18:50 48.59772 5.04653 31010 ft 475 kts 119°
2026-05-07 18:51 48.58137 5.09003 31361 ft 478 kts 119°
2026-05-07 18:51 48.56492 5.13372 31725 ft 480 kts 119°
2026-05-07 18:51 48.54852 5.17718 32047 ft 483 kts 119°
2026-05-07 18:51 48.53163 5.22190 32445 ft 484 kts 120°
2026-05-07 18:52 48.51508 5.26560 32805 ft 487 kts 120°
2026-05-07 18:52 48.49826 5.30996 33103 ft 490 kts 120°
2026-05-07 18:52 48.48121 5.35484 33390 ft 493 kts 120°
2026-05-07 18:52 48.46411 5.39979 33726 ft 496 kts 120°
2026-05-07 18:53 48.44693 5.44486 34065 ft 498 kts 120°
2026-05-07 18:53 48.42963 5.49020 34369 ft 500 kts 120°
2026-05-07 18:53 48.41224 5.53568 34656 ft 503 kts 120°
2026-05-07 18:53 48.39470 5.58148 35032 ft 504 kts 120°
2026-05-07 18:54 48.37714 5.62723 35458 ft 504 kts 120°
2026-05-07 18:54 48.35964 5.67277 35871 ft 503 kts 120°
2026-05-07 18:54 48.34218 5.71812 36342 ft 501 kts 120°
2026-05-07 18:54 48.32488 5.76299 36684 ft 502 kts 121°
2026-05-07 18:55 48.30773 5.80869 36986 ft 503 kts 117°
2026-05-07 18:55 48.27739 5.90445 37049 ft 506 kts 116°
2026-05-07 18:56 48.24732 5.99980 37050 ft 506 kts 116°
2026-05-07 18:56 48.21696 6.09509 37050 ft 506 kts 116°
2026-05-07 18:57 48.18652 6.19010 37049 ft 506 kts 116°
2026-05-07 18:57 48.15601 6.28497 37048 ft 506 kts 116°
2026-05-07 18:58 48.12529 6.38010 37049 ft 507 kts 116°
2026-05-07 18:58 48.09454 6.47500 37052 ft 507 kts 116°
2026-05-07 18:59 48.06390 6.56922 37045 ft 507 kts 116°
2026-05-07 18:59 48.03297 6.66396 37041 ft 507 kts 116°
2026-05-07 19:00 48.00192 6.75873 37049 ft 507 kts 116°
2026-05-07 19:00 47.97079 6.85338 37045 ft 507 kts 117°
2026-05-07 19:01 47.93962 6.94781 37028 ft 507 kts 117°
2026-05-07 19:01 47.90829 7.04236 37039 ft 508 kts 117°
2026-05-07 19:02 47.87688 7.13686 37025 ft 509 kts 118°
2026-05-07 19:02 47.84554 7.23073 37066 ft 510 kts 118°
2026-05-07 19:03 47.81367 7.32586 37079 ft 511 kts 118°
2026-05-07 19:03 47.78211 7.41972 37082 ft 511 kts 118°
2026-05-07 19:04 47.74589 7.51001 37075 ft 506 kts 132°
2026-05-07 19:04 47.69335 7.57812 37065 ft 499 kts 151°
2026-05-07 19:05 47.63134 7.62328 37055 ft 496 kts 157°
2026-05-07 19:05 47.56915 7.66716 37052 ft 495 kts 157°
2026-05-07 19:06 47.50694 7.71092 37046 ft 494 kts 157°
2026-05-07 19:06 47.41373 7.77608 37027 ft 494 kts 157°
2026-05-07 19:07 47.35159 7.81935 37007 ft 493 kts 157°
2026-05-07 19:07 47.28984 7.86226 37043 ft 493 kts 157°
2026-05-07 19:08 47.22762 7.90536 37044 ft 495 kts 157°
2026-05-07 19:08 47.16524 7.94847 37044 ft 495 kts 157°
2026-05-07 19:09 47.10285 7.99148 37047 ft 496 kts 157°
2026-05-07 19:09 47.04017 8.03457 37043 ft 497 kts 157°
2026-05-07 19:10 46.97747 8.07756 37045 ft 498 kts 157°
2026-05-07 19:10 46.91474 8.12046 37021 ft 498 kts 157°
2026-05-07 19:11 46.85189 8.16333 37050 ft 498 kts 157°
2026-05-07 19:11 46.78883 8.20627 36997 ft 500 kts 158°
2026-05-07 19:12 46.72627 8.24870 37008 ft 499 kts 159°
2026-05-07 19:12 46.66332 8.29131 37015 ft 498 kts 159°
2026-05-07 19:13 46.60038 8.33380 37002 ft 499 kts 159°
2026-05-07 19:13 46.53730 8.37629 37008 ft 499 kts 159°
2026-05-07 19:14 46.47423 8.41864 36973 ft 499 kts 159°
2026-05-07 19:14 46.41137 8.46076 36980 ft 499 kts 159°
2026-05-07 19:15 46.34845 8.50281 37021 ft 499 kts 159°
2026-05-07 19:15 46.28530 8.54491 37022 ft 494 kts 159°
2026-05-07 19:16 46.22267 8.58656 37020 ft 495 kts 159°
2026-05-07 19:16 46.17048 8.62116 37022 ft 495 kts 159°
2026-05-07 19:17 46.10795 8.66261 37024 ft 498 kts 158°
2026-05-07 19:17 46.04710 8.70948 37020 ft 490 kts 155°
2026-05-07 19:18 45.98735 8.75654 37020 ft 490 kts 155°
2026-05-07 19:18 45.93832 8.79485 37021 ft 492 kts 155°
2026-05-07 19:19 45.87847 8.84149 37022 ft 493 kts 155°
2026-05-07 19:19 45.81809 8.88841 37030 ft 493 kts 155°
2026-05-07 19:20 45.75779 8.93517 37021 ft 492 kts 155°
2026-05-07 19:20 45.69766 8.98166 37019 ft 491 kts 155°
2026-05-07 19:21 45.63919 9.03253 37018 ft 494 kts 147°
2026-05-07 19:21 45.58660 9.09645 36992 ft 498 kts 142°
2026-05-07 19:22 45.53535 9.16188 36962 ft 498 kts 143°
2026-05-07 19:22 45.48313 9.22798 36963 ft 498 kts 143°
2026-05-07 19:23 45.43169 9.29284 36965 ft 498 kts 143°
2026-05-07 19:23 45.37975 9.35816 36966 ft 498 kts 143°
2026-05-07 19:24 45.32780 9.42334 36967 ft 498 kts 143°
2026-05-07 19:24 45.27580 9.48842 36968 ft 498 kts 143°
2026-05-07 19:25 45.22379 9.55333 36969 ft 498 kts 143°
2026-05-07 19:25 45.17164 9.61827 36968 ft 498 kts 143°
2026-05-07 19:26 45.11955 9.68297 36969 ft 498 kts 144°
2026-05-07 19:26 45.06779 9.74709 36970 ft 498 kts 144°
2026-05-07 19:27 45.01565 9.81152 36967 ft 497 kts 144°
2026-05-07 19:27 44.96349 9.87581 36966 ft 497 kts 144°
2026-05-07 19:28 44.91137 9.93990 36964 ft 497 kts 144°
2026-05-07 19:28 44.85916 10.00393 36961 ft 497 kts 144°
2026-05-07 19:29 44.80688 10.06789 36959 ft 497 kts 144°
2026-05-07 19:29 44.75466 10.13161 36959 ft 497 kts 144°
2026-05-07 19:30 44.70241 10.19521 36961 ft 497 kts 144°
2026-05-07 19:30 44.65004 10.25881 36956 ft 497 kts 144°
2026-05-07 19:31 44.59759 10.32234 36953 ft 498 kts 144°
2026-05-07 19:31 44.54525 10.38559 36964 ft 498 kts 145°
2026-05-07 19:32 44.49290 10.44871 36952 ft 498 kts 145°
2026-05-07 19:32 44.44041 10.51183 36949 ft 497 kts 145°
2026-05-07 19:33 44.38785 10.57485 36949 ft 498 kts 145°
2026-05-07 19:33 44.33519 10.63785 36950 ft 497 kts 145°
2026-05-07 19:34 44.28246 10.70078 36942 ft 498 kts 146°
2026-05-07 19:34 44.22965 10.76365 36952 ft 499 kts 146°
2026-05-07 19:35 44.17678 10.82647 36934 ft 500 kts 146°
2026-05-07 19:35 44.12417 10.88880 36962 ft 500 kts 146°
2026-05-07 19:36 44.07102 10.95163 36971 ft 502 kts 146°
2026-05-07 19:36 44.01777 11.01451 36959 ft 502 kts 145°
2026-05-07 19:37 43.96570 11.07939 36980 ft 504 kts 143°
2026-05-07 19:37 43.91401 11.14452 37010 ft 504 kts 144°
2026-05-07 19:38 43.86151 11.20999 37004 ft 505 kts 144°
2026-05-07 19:38 43.80954 11.27454 37014 ft 504 kts 144°
2026-05-07 19:39 43.75729 11.33923 37010 ft 503 kts 144°
2026-05-07 19:39 43.70514 11.40367 36992 ft 502 kts 144°
2026-05-07 19:40 43.65311 11.46777 36985 ft 500 kts 144°
2026-05-07 19:40 43.60120 11.53159 36971 ft 499 kts 144°
2026-05-07 19:41 43.54946 11.59504 36966 ft 498 kts 144°
2026-05-07 19:41 43.49804 11.65795 36965 ft 497 kts 145°
2026-05-07 19:42 43.44636 11.72102 36960 ft 497 kts 145°
2026-05-07 19:42 43.39463 11.78400 36968 ft 497 kts 145°
2026-05-07 19:43 43.34261 11.84717 36979 ft 498 kts 145°
2026-05-07 19:43 43.29056 11.91024 36989 ft 499 kts 145°
2026-05-07 19:44 43.23835 11.97337 36992 ft 500 kts 145°
2026-05-07 19:44 43.18607 12.03641 36998 ft 501 kts 145°
2026-05-07 19:45 43.13398 12.09909 37002 ft 502 kts 145°
2026-05-07 19:45 43.08154 12.16208 37004 ft 502 kts 144°
2026-05-07 19:46 43.03339 12.23254 37004 ft 510 kts 136°
2026-05-07 19:46 42.98742 12.30667 37003 ft 510 kts 136°
2026-05-07 19:47 42.94145 12.38032 37005 ft 509 kts 137°
2026-05-07 19:47 42.89543 12.45376 36996 ft 509 kts 137°
2026-05-07 19:48 42.84932 12.52710 36987 ft 508 kts 137°
2026-05-07 19:48 42.80327 12.60017 36966 ft 508 kts 137°
2026-05-07 19:49 42.75752 12.67257 36987 ft 508 kts 137°
2026-05-07 19:49 42.71139 12.74541 36982 ft 508 kts 137°
2026-05-07 19:50 42.66526 12.81806 36967 ft 506 kts 137°
2026-05-07 19:50 42.61910 12.89058 36946 ft 508 kts 137°
2026-05-07 19:51 42.57275 12.96319 36965 ft 509 kts 137°
2026-05-07 19:51 42.52616 13.03600 36930 ft 512 kts 136°
2026-05-07 19:52 42.47960 13.10860 36963 ft 516 kts 136°
2026-05-07 19:52 42.43207 13.18250 36966 ft 519 kts 136°
2026-05-07 19:53 42.38462 13.25617 36967 ft 518 kts 136°
2026-05-07 19:53 42.33735 13.32936 36967 ft 515 kts 136°
2026-05-07 19:54 42.29012 13.40222 36955 ft 520 kts 136°
2026-05-07 19:54 42.24222 13.47595 36959 ft 524 kts 136°
2026-05-07 19:55 42.19404 13.54999 37004 ft 527 kts 136°
2026-05-07 19:55 42.14557 13.62429 36962 ft 527 kts 136°
2026-05-07 19:56 42.09752 13.69781 36966 ft 517 kts 136°
2026-05-07 19:56 42.05006 13.77018 36964 ft 517 kts 137°
2026-05-07 19:57 42.00228 13.84277 36965 ft 517 kts 137°
2026-05-07 19:57 41.95419 13.91572 36967 ft 522 kts 137°
2026-05-07 19:58 41.90616 13.98843 36968 ft 520 kts 137°
2026-05-07 19:58 41.85840 14.06051 36964 ft 519 kts 137°
2026-05-07 19:59 41.81033 14.13291 36967 ft 518 kts 137°
2026-05-07 19:59 41.76249 14.20481 36962 ft 515 kts 137°
2026-05-07 20:00 41.71475 14.27638 36949 ft 513 kts 137°
2026-05-07 20:00 41.66720 14.34746 36939 ft 511 kts 137°
2026-05-07 20:01 41.62014 14.41764 36905 ft 510 kts 137°
2026-05-07 20:01 41.57265 14.48829 36872 ft 510 kts 136°
2026-05-07 20:02 41.52523 14.55870 36876 ft 509 kts 135°
2026-05-07 20:02 41.47783 14.62890 36864 ft 508 kts 135°
2026-05-07 20:03 41.43051 14.69881 36869 ft 508 kts 135°
2026-05-07 20:03 41.38302 14.76881 36907 ft 511 kts 135°
2026-05-07 20:04 41.34306 14.82755 36907 ft 516 kts 135°
2026-05-07 20:04 41.29488 14.89829 36913 ft 515 kts 135°
2026-05-07 20:05 41.24681 14.96869 36916 ft 516 kts 136°
2026-05-07 20:05 41.19861 15.03909 36909 ft 513 kts 136°
2026-05-07 20:06 41.15054 15.10917 36902 ft 514 kts 136°
2026-05-07 20:06 41.10238 15.17929 36909 ft 514 kts 135°
2026-05-07 20:07 41.05593 15.25135 36910 ft 516 kts 133°
2026-05-07 20:07 41.00995 15.32449 36904 ft 516 kts 133°
2026-05-07 20:08 40.96375 15.39719 36898 ft 516 kts 134°
2026-05-07 20:08 40.91740 15.46964 36927 ft 516 kts 134°
2026-05-07 20:09 40.87091 15.54205 36904 ft 517 kts 134°
2026-05-07 20:10 40.80103 15.65056 36929 ft 517 kts 134°
2026-05-07 20:10 40.75460 15.72244 36894 ft 517 kts 134°
2026-05-07 20:11 40.70794 15.79452 36911 ft 516 kts 134°
2026-05-07 20:11 40.66133 15.86633 36905 ft 516 kts 134°
2026-05-07 20:12 40.61449 15.93836 36982 ft 516 kts 134°
2026-05-07 20:12 40.56758 16.01029 36997 ft 518 kts 134°
2026-05-07 20:13 40.52079 16.08187 37017 ft 521 kts 134°
2026-05-07 20:13 40.47343 16.15416 37027 ft 522 kts 134°
2026-05-07 20:14 40.42583 16.22667 37023 ft 524 kts 134°
2026-05-07 20:14 40.37822 16.29901 37046 ft 524 kts 134°
2026-05-07 20:15 40.33043 16.37145 37058 ft 525 kts 134°
2026-05-07 20:15 40.28264 16.44372 37064 ft 524 kts 135°
2026-05-07 20:16 40.23517 16.51535 37060 ft 523 kts 135°
2026-05-07 20:16 40.18750 16.58709 37050 ft 521 kts 135°
2026-05-07 20:17 40.13994 16.65850 37044 ft 520 kts 135°
2026-05-07 20:17 40.09249 16.72960 37033 ft 518 kts 135°
2026-05-07 20:18 40.04507 16.80047 37024 ft 517 kts 135°
2026-05-07 20:18 39.99804 16.87061 37021 ft 516 kts 135°
2026-05-07 20:19 39.95067 16.94108 37015 ft 515 kts 135°
2026-05-07 20:19 39.90348 17.01114 37010 ft 514 kts 135°
2026-05-07 20:20 39.85618 17.08119 37008 ft 514 kts 135°
2026-05-07 20:20 39.80889 17.15107 37007 ft 514 kts 135°
2026-05-07 20:21 39.76152 17.22091 37009 ft 514 kts 135°
2026-05-07 20:21 39.71420 17.29053 37013 ft 515 kts 135°
2026-05-07 20:22 39.66687 17.36001 36967 ft 520 kts 137°
2026-05-07 20:22 39.61812 17.43127 36995 ft 537 kts 136°
2026-05-07 20:23 39.56884 17.50335 36993 ft 532 kts 136°
2026-05-07 20:23 39.51989 17.57474 36993 ft 533 kts 137°
2026-05-07 20:24 39.47029 17.64688 36994 ft 533 kts 137°
2026-05-07 20:24 39.42086 17.71861 36993 ft 533 kts 137°
2026-05-07 20:25 39.37144 17.79014 36993 ft 533 kts 137°
2026-05-07 20:25 39.32233 17.86107 36994 ft 533 kts 137°
2026-05-07 20:26 39.27276 17.93251 36994 ft 533 kts 137°
2026-05-07 20:26 39.22346 18.00338 36993 ft 533 kts 137°
2026-05-07 20:27 39.17372 18.07473 36993 ft 533 kts 137°
2026-05-07 20:27 39.12414 18.14569 36994 ft 533 kts 137°
2026-05-07 20:28 39.07445 18.21663 36994 ft 533 kts 137°
2026-05-07 20:28 39.02509 18.28696 36994 ft 533 kts 137°
2026-05-07 20:29 38.97532 18.35771 36994 ft 533 kts 137°
2026-05-07 20:29 38.92561 18.42821 36994 ft 533 kts 137°
2026-05-07 20:30 38.87582 18.49866 36994 ft 533 kts 137°
2026-05-07 20:30 38.82594 18.56909 36993 ft 533 kts 137°
2026-05-07 20:31 38.77613 18.63926 36993 ft 532 kts 137°
2026-05-07 20:31 38.72623 18.70939 36993 ft 532 kts 137°
2026-05-07 20:32 38.67653 18.77910 37066 ft 536 kts 139°
2026-05-07 20:32 38.62510 18.85093 37076 ft 552 kts 140°
2026-05-07 20:33 38.57279 18.92391 37076 ft 570 kts 140°
2026-05-07 20:33 38.51935 18.99848 37074 ft 562 kts 141°
2026-05-07 20:34 38.46450 19.06977 37074 ft 564 kts 142°
2026-05-07 20:34 38.40997 19.14172 37075 ft 564 kts 142°
2026-05-07 20:35 38.35528 19.21359 37076 ft 564 kts 142°
2026-05-07 20:35 38.30050 19.28527 37075 ft 564 kts 142°
2026-05-07 20:36 38.24606 19.35629 37078 ft 564 kts 142°
2026-05-07 20:36 38.19110 19.42776 37077 ft 564 kts 142°
2026-05-07 20:37 38.13621 19.49895 37078 ft 564 kts 142°
2026-05-07 20:37 38.08175 19.56942 37077 ft 563 kts 142°
2026-05-07 20:38 38.02663 19.64058 37076 ft 563 kts 142°
2026-05-07 20:38 37.97163 19.71143 37075 ft 563 kts 142°
2026-05-07 20:39 37.91658 19.78218 37075 ft 563 kts 142°
2026-05-07 20:39 37.86156 19.85274 37075 ft 563 kts 142°
2026-05-07 20:40 37.80677 19.92284 37075 ft 563 kts 142°
2026-05-07 20:40 37.75162 19.99323 37075 ft 563 kts 142°
2026-05-07 20:41 37.69643 20.06354 37075 ft 563 kts 142°
2026-05-07 20:41 37.64117 20.13375 37076 ft 563 kts 142°
2026-05-07 20:42 37.58580 20.20391 37133 ft 568 kts 141°
2026-05-07 20:42 37.52958 20.27495 37130 ft 582 kts 141°
2026-05-07 20:43 37.47260 20.34699 37131 ft 579 kts 141°
2026-05-07 20:43 37.41562 20.41877 37129 ft 579 kts 141°
2026-05-07 20:44 37.35856 20.49046 37131 ft 580 kts 141°
2026-05-07 20:44 37.30145 20.56207 37130 ft 579 kts 141°
2026-05-07 20:45 37.24443 20.63338 37128 ft 579 kts 141°
2026-05-07 20:45 37.18757 20.70434 37127 ft 579 kts 141°
2026-05-07 20:46 37.13038 20.77555 37131 ft 579 kts 141°
2026-05-07 20:46 37.07309 20.84672 37128 ft 579 kts 141°
2026-05-07 20:47 37.01597 20.91753 37130 ft 579 kts 141°
2026-05-07 20:47 36.95844 20.98869 37130 ft 579 kts 141°
2026-05-07 20:48 36.90148 21.05898 37128 ft 579 kts 141°
2026-05-07 20:48 36.84395 21.12981 37131 ft 579 kts 141°
2026-05-07 20:49 36.78651 21.20037 37130 ft 579 kts 141°
2026-05-07 20:49 36.72913 21.27072 37130 ft 579 kts 141°
2026-05-07 20:50 36.67205 21.34053 37131 ft 579 kts 141°
2026-05-07 20:50 36.61435 21.41094 37129 ft 579 kts 141°
2026-05-07 20:51 36.55680 21.48102 37130 ft 579 kts 142°
2026-05-07 20:51 36.49915 21.55107 37130 ft 579 kts 142°
2026-05-07 20:52 36.44146 21.62098 37135 ft 579 kts 140°
2026-05-07 20:52 36.38401 21.69050 37142 ft 581 kts 140°
2026-05-07 20:53 36.32625 21.76022 37153 ft 582 kts 140°
2026-05-07 20:53 36.26807 21.83029 37157 ft 583 kts 140°
2026-05-07 20:54 36.20977 21.90036 37169 ft 583 kts 140°
2026-05-07 20:54 36.15147 21.97027 37168 ft 584 kts 140°
2026-05-07 20:55 36.10295 22.02834 37168 ft 584 kts 140°
2026-05-07 20:55 36.04453 22.09812 37167 ft 583 kts 140°
2026-05-07 20:56 35.98614 22.16771 37166 ft 583 kts 140°
2026-05-07 20:56 35.92768 22.23723 37166 ft 583 kts 140°
2026-05-07 20:57 35.86923 22.30659 37160 ft 582 kts 140°
2026-05-07 20:57 35.81077 22.37582 37154 ft 582 kts 140°
2026-05-07 20:58 35.75284 22.44426 37154 ft 582 kts 140°
2026-05-07 20:58 35.69425 22.51333 37155 ft 582 kts 140°
2026-05-07 20:59 35.63576 22.58216 37154 ft 581 kts 140°
2026-05-07 20:59 35.57718 22.65092 37152 ft 581 kts 140°
2026-05-07 21:00 35.51858 22.71957 37155 ft 581 kts 140°
2026-05-07 21:00 35.46045 22.78753 37153 ft 582 kts 140°
2026-05-07 21:01 35.40159 22.85619 37157 ft 582 kts 140°
2026-05-07 21:01 35.34294 22.92447 37160 ft 582 kts 140°
2026-05-07 21:02 35.28418 22.99271 37161 ft 581 kts 139°
2026-05-07 21:02 35.22577 23.06044 37159 ft 581 kts 139°
2026-05-07 21:03 35.16702 23.12841 37159 ft 581 kts 139°
2026-05-07 21:03 35.10818 23.19632 37159 ft 581 kts 139°
2026-05-07 21:04 35.04937 23.26407 37159 ft 580 kts 139°
2026-05-07 21:04 34.99058 23.33165 37153 ft 580 kts 139°
2026-05-07 21:05 34.93179 23.39910 37155 ft 580 kts 139°
2026-05-07 21:05 34.87329 23.46607 37156 ft 580 kts 140°
2026-05-07 21:06 34.81438 23.53338 37152 ft 580 kts 140°
2026-05-07 21:06 34.75542 23.60061 37153 ft 580 kts 140°
2026-05-07 21:07 34.69638 23.66778 37154 ft 580 kts 140°
2026-05-07 21:07 34.63736 23.73479 37155 ft 580 kts 140°
2026-05-07 21:08 34.57863 23.80134 37154 ft 580 kts 140°
2026-05-07 21:08 34.51967 23.86802 37156 ft 580 kts 140°
2026-05-07 21:09 34.46047 23.93483 37156 ft 580 kts 140°
2026-05-07 21:09 34.40126 24.00152 37154 ft 580 kts 140°
2026-05-07 21:10 34.34210 24.06801 37155 ft 580 kts 140°
2026-05-07 21:10 34.28318 24.13411 37158 ft 580 kts 140°
2026-05-07 21:11 34.22396 24.20040 37158 ft 580 kts 140°
2026-05-07 21:11 34.13489 24.29990 37154 ft 581 kts 139°
2026-05-07 21:12 34.07501 24.36668 37160 ft 591 kts 137°
2026-05-07 21:12 34.01452 24.43403 37155 ft 591 kts 137°
2026-05-07 21:13 33.95290 24.49960 37158 ft 591 kts 139°
2026-05-07 21:13 33.89218 24.56552 37154 ft 591 kts 138°
2026-05-07 21:14 33.83093 24.63171 37155 ft 591 kts 139°
2026-05-07 21:14 33.76956 24.69757 37157 ft 591 kts 139°
2026-05-07 21:15 33.70809 24.76331 37159 ft 591 kts 139°
2026-05-07 21:15 33.64663 24.82891 37157 ft 591 kts 139°
2026-05-07 21:16 33.58540 24.89414 37157 ft 591 kts 139°
2026-05-07 21:16 33.52385 24.95957 37160 ft 591 kts 139°
2026-05-07 21:17 33.46255 25.02462 37161 ft 591 kts 139°
2026-05-07 21:17 33.40069 25.09012 37157 ft 591 kts 139°
2026-05-07 21:18 33.33890 25.15543 37158 ft 591 kts 139°
2026-05-07 21:18 33.27725 25.22045 37157 ft 591 kts 139°
2026-05-07 21:19 33.21559 25.28537 37158 ft 591 kts 139°
2026-05-07 21:19 33.15419 25.34987 37157 ft 591 kts 139°
2026-05-07 21:20 33.09239 25.41469 37158 ft 591 kts 139°
2026-05-07 21:20 33.03054 25.47941 37157 ft 591 kts 139°
2026-05-07 21:21 32.96855 25.54417 37157 ft 591 kts 139°
2026-05-07 21:21 32.90703 25.60828 37175 ft 590 kts 138°
2026-05-07 21:22 32.84537 25.67245 37213 ft 588 kts 137°
2026-05-07 21:22 32.78387 25.73633 37203 ft 587 kts 137°
2026-05-07 21:23 32.72234 25.80011 37194 ft 586 kts 137°
2026-05-07 21:23 32.66085 25.86373 37199 ft 585 kts 137°
2026-05-07 21:24 32.59954 25.92704 37196 ft 584 kts 137°
2026-05-07 21:24 32.53810 25.99037 37176 ft 584 kts 137°
2026-05-07 21:25 32.47718 26.05303 37178 ft 583 kts 137°
2026-05-07 21:25 32.41582 26.11605 37170 ft 583 kts 137°
2026-05-07 21:26 32.35449 26.17890 37173 ft 583 kts 137°
2026-05-07 21:26 32.29307 26.24174 37168 ft 583 kts 137°
2026-05-07 21:27 32.23163 26.30448 37179 ft 583 kts 137°
2026-05-07 21:27 32.17057 26.36671 37172 ft 584 kts 137°
2026-05-07 21:28 32.10908 26.42927 37177 ft 584 kts 137°
2026-05-07 21:28 32.04744 26.49186 37174 ft 585 kts 137°
2026-05-07 21:29 31.98561 26.55453 37195 ft 585 kts 137°
2026-05-07 21:29 31.92385 26.61701 37199 ft 585 kts 137°
2026-05-07 21:30 31.86228 26.67919 37202 ft 586 kts 137°
2026-05-07 21:30 31.80037 26.74159 37201 ft 586 kts 137°
2026-05-07 21:31 31.73840 26.80395 37200 ft 585 kts 137°
2026-05-07 21:31 31.67655 26.86605 37210 ft 584 kts 136°
2026-05-07 21:32 31.61511 26.92763 37197 ft 575 kts 136°
2026-05-07 21:32 31.55442 26.98837 37179 ft 572 kts 136°
2026-05-07 21:33 31.49409 27.04866 37174 ft 573 kts 136°
2026-05-07 21:33 31.43332 27.10927 37171 ft 573 kts 136°
2026-05-07 21:34 31.37258 27.16976 37171 ft 573 kts 136°
2026-05-07 21:34 31.31522 27.23378 37176 ft 566 kts 125°
2026-05-07 21:35 31.27009 27.30777 37170 ft 560 kts 118°
2026-05-07 21:35 31.22668 27.38304 37170 ft 560 kts 118°
2026-05-07 21:36 31.18280 27.45863 37176 ft 561 kts 118°
2026-05-07 21:36 31.13890 27.53410 37170 ft 561 kts 118°
2026-05-07 21:37 31.09450 27.60924 37174 ft 562 kts 119°
2026-05-07 21:37 31.04970 27.68401 37174 ft 563 kts 119°
2026-05-07 21:38 31.00510 27.75851 37179 ft 563 kts 119°
2026-05-07 21:38 30.96022 27.83343 37180 ft 563 kts 119°
2026-05-07 21:39 30.91527 27.90833 37197 ft 564 kts 119°
2026-05-07 21:39 30.87023 27.98324 37200 ft 564 kts 120°
2026-05-07 21:40 30.82546 28.05755 37200 ft 564 kts 120°
2026-05-07 21:40 30.78035 28.13231 37200 ft 564 kts 120°
2026-05-07 21:41 30.73527 28.20685 37198 ft 564 kts 120°
2026-05-07 21:41 30.69012 28.28141 37196 ft 564 kts 121°
2026-05-07 21:42 30.64517 28.35548 37219 ft 559 kts 124°
2026-05-07 21:42 30.62306 28.39182 37177 ft 543 kts 124°
2026-05-07 21:42 30.60156 28.42713 37173 ft 527 kts 124°
2026-05-07 21:43 30.55928 28.49657 37170 ft 530 kts 124°
2026-05-07 21:43 30.51668 28.56638 37175 ft 531 kts 124°
2026-05-07 21:44 30.48113 28.62456 37197 ft 531 kts 124°
2026-05-07 21:44 30.43837 28.69441 37183 ft 531 kts 124°
2026-05-07 21:45 30.39549 28.76433 37198 ft 533 kts 124°
2026-05-07 21:45 30.35251 28.83431 37206 ft 533 kts 124°
2026-05-07 21:46 30.30941 28.90433 37213 ft 533 kts 124°
2026-05-07 21:46 30.26662 28.97375 37210 ft 533 kts 125°
2026-05-07 21:47 30.22354 29.04350 37203 ft 532 kts 125°
2026-05-07 21:47 30.18051 29.11312 37196 ft 531 kts 125°
2026-05-07 21:48 30.13757 29.18271 37176 ft 531 kts 124°
2026-05-07 21:48 30.09500 29.25235 37174 ft 530 kts 124°
2026-05-07 21:49 30.05294 29.32238 37175 ft 530 kts 124°
2026-05-07 21:49 30.01102 29.39185 37174 ft 530 kts 124°
2026-05-07 21:50 29.96882 29.46153 37175 ft 529 kts 124°
2026-05-07 21:50 29.92652 29.53122 37174 ft 529 kts 124°
2026-05-07 21:51 29.88454 29.60027 37171 ft 529 kts 124°
2026-05-07 21:51 29.84223 29.66975 37176 ft 529 kts 124°
2026-05-07 21:52 29.79995 29.73907 37195 ft 528 kts 125°
2026-05-07 21:52 29.75766 29.80827 37174 ft 527 kts 125°
2026-05-07 21:53 29.71570 29.87682 37167 ft 526 kts 125°
2026-05-07 21:53 29.67354 29.94558 37160 ft 525 kts 126°
2026-05-07 21:54 29.63139 30.01422 37158 ft 525 kts 126°
2026-05-07 21:54 29.58919 30.08280 37153 ft 524 kts 126°
2026-05-07 21:55 29.54703 30.15122 37147 ft 524 kts 126°
2026-05-07 21:55 29.50491 30.21946 37145 ft 524 kts 126°
2026-05-07 21:56 29.46302 30.28721 37149 ft 523 kts 126°
2026-05-07 21:56 29.42088 30.35527 37151 ft 522 kts 126°
2026-05-07 21:57 29.37521 30.42006 37151 ft 521 kts 135°
2026-05-07 21:57 29.32481 30.47971 37147 ft 521 kts 135°
2026-05-07 21:58 29.27454 30.53972 37150 ft 521 kts 135°
2026-05-07 21:58 29.22425 30.59964 37152 ft 522 kts 135°
2026-05-07 21:59 29.17391 30.65950 37152 ft 522 kts 135°
2026-05-07 21:59 29.12377 30.71902 37157 ft 522 kts 135°
2026-05-07 22:00 29.07324 30.77892 37157 ft 523 kts 135°
2026-05-07 22:00 29.02274 30.83869 37158 ft 523 kts 135°
2026-05-07 22:01 28.97222 30.89840 37156 ft 523 kts 135°
2026-05-07 22:01 28.92190 30.95778 37155 ft 523 kts 135°
2026-05-07 22:02 28.87136 31.01735 37146 ft 522 kts 136°
2026-05-07 22:02 28.82073 31.07691 37140 ft 522 kts 136°
2026-05-07 22:03 28.77019 31.13627 37135 ft 521 kts 136°
2026-05-07 22:03 28.71970 31.19550 37132 ft 521 kts 136°
2026-05-07 22:04 28.66986 31.25520 37124 ft 521 kts 134°
2026-05-07 22:04 28.62166 31.31679 37125 ft 520 kts 133°
2026-05-07 22:05 28.57326 31.37820 37123 ft 520 kts 134°
2026-05-07 22:05 28.52504 31.43887 37118 ft 520 kts 134°
2026-05-07 22:06 28.47648 31.49977 37120 ft 520 kts 134°
2026-05-07 22:06 28.42789 31.56064 37116 ft 520 kts 134°
2026-05-07 22:07 28.37913 31.62162 37116 ft 520 kts 134°
2026-05-07 22:07 28.33051 31.68235 37113 ft 520 kts 134°
2026-05-07 22:08 28.28177 31.74313 37119 ft 520 kts 134°
2026-05-07 22:08 28.23305 31.80380 37119 ft 521 kts 134°
2026-05-07 22:09 28.18452 31.86414 37122 ft 521 kts 134°
2026-05-07 22:09 28.13554 31.92497 37123 ft 522 kts 134°
2026-05-07 22:10 28.08650 31.98577 37126 ft 522 kts 134°
2026-05-07 22:10 28.03886 32.04811 37124 ft 524 kts 127°
2026-05-07 22:11 28.00085 32.11876 37123 ft 526 kts 119°
2026-05-07 22:11 27.96597 32.19172 37083 ft 527 kts 120°
2026-05-07 22:12 27.94858 32.22780 36885 ft 532 kts 122°
2026-05-07 22:12 27.93057 32.26507 36948 ft 531 kts 122°
2026-05-07 22:12 27.89528 32.33804 36938 ft 531 kts 122°
2026-05-07 22:13 27.85989 32.41115 36949 ft 531 kts 122°
2026-05-07 22:13 27.82434 32.48447 36949 ft 531 kts 122°
2026-05-07 22:14 27.78883 32.55759 36944 ft 530 kts 122°
2026-05-07 22:14 27.75332 32.63058 36948 ft 530 kts 122°
2026-05-07 22:15 27.71777 32.70350 36946 ft 529 kts 122°
2026-05-07 22:15 27.68247 32.77581 36942 ft 529 kts 122°
2026-05-07 22:16 27.64691 32.84853 36938 ft 529 kts 122°
2026-05-07 22:16 27.61130 32.92120 36934 ft 529 kts 122°
2026-05-07 22:17 27.57566 32.99382 36936 ft 529 kts 122°
2026-05-07 22:17 27.53995 33.06646 36940 ft 528 kts 122°
2026-05-07 22:18 27.48668 33.17460 36945 ft 529 kts 122°
2026-05-07 22:19 27.45087 33.24716 36950 ft 529 kts 122°
2026-05-07 22:19 27.41509 33.31950 36952 ft 528 kts 122°
2026-05-07 22:20 27.37932 33.39173 36952 ft 528 kts 123°
2026-05-07 22:20 27.34376 33.46338 36951 ft 527 kts 123°
2026-05-07 22:21 27.30791 33.53548 36948 ft 527 kts 123°
2026-05-07 22:21 27.27215 33.60730 36946 ft 526 kts 123°
2026-05-07 22:22 27.23640 33.67903 36980 ft 525 kts 124°
2026-05-07 22:22 27.20069 33.75047 36978 ft 524 kts 124°
2026-05-07 22:23 27.16772 33.82367 36971 ft 529 kts 116°
2026-05-07 22:23 27.14073 33.90067 36968 ft 529 kts 116°
2026-05-07 22:24 27.11347 33.97733 36965 ft 528 kts 116°
2026-05-07 22:24 27.08631 34.05348 36963 ft 528 kts 116°
2026-05-07 22:25 27.05902 34.12987 36962 ft 528 kts 116°
2026-05-07 22:25 27.03160 34.20650 36962 ft 528 kts 116°
2026-05-07 22:26 27.00439 34.28238 36962 ft 528 kts 116°
2026-05-07 22:26 26.97693 34.35878 36963 ft 528 kts 116°
2026-05-07 22:27 26.94939 34.43527 36964 ft 528 kts 116°
2026-05-07 22:27 26.92203 34.51108 36966 ft 528 kts 116°
2026-05-07 22:28 26.89438 34.58755 36966 ft 528 kts 116°
2026-05-07 22:28 26.86674 34.66386 36967 ft 528 kts 117°
2026-05-07 22:29 26.83908 34.74007 36967 ft 528 kts 117°
2026-05-07 22:29 26.81137 34.81625 36968 ft 528 kts 117°
2026-05-07 22:30 26.78372 34.89214 36968 ft 528 kts 117°
2026-05-07 22:30 26.76048 34.95582 36967 ft 528 kts 117°
2026-05-07 22:31 26.73270 35.03183 36966 ft 528 kts 117°
2026-05-07 22:31 26.70480 35.10807 36966 ft 528 kts 117°
2026-05-07 22:32 26.67713 35.18360 36955 ft 528 kts 119°
2026-05-07 22:32 26.64915 35.25968 36933 ft 529 kts 120°
2026-05-07 22:33 26.62130 35.33527 36934 ft 529 kts 120°
2026-05-07 22:33 26.59320 35.41146 36936 ft 529 kts 120°
2026-05-07 22:34 26.56510 35.48749 36939 ft 529 kts 120°
2026-05-07 22:34 26.53636 35.56328 36939 ft 529 kts 121°
2026-05-07 22:35 26.50739 35.63876 36941 ft 529 kts 120°
2026-05-07 22:35 26.47845 35.71431 36941 ft 529 kts 120°
2026-05-07 22:36 26.44969 35.78935 36941 ft 529 kts 120°
2026-05-07 22:36 26.42080 35.86459 36941 ft 529 kts 121°
2026-05-07 22:37 26.39170 35.94023 36940 ft 529 kts 121°
2026-05-07 22:37 26.36267 36.01556 36940 ft 528 kts 121°
2026-05-07 22:38 26.33360 36.09084 36940 ft 528 kts 121°
2026-05-07 22:38 26.30451 36.16604 36939 ft 528 kts 121°
2026-05-07 22:39 26.27535 36.24125 36940 ft 528 kts 121°
2026-05-07 22:39 26.24633 36.31600 36939 ft 528 kts 121°
2026-05-07 22:40 26.21713 36.39106 36939 ft 528 kts 121°
2026-05-07 22:40 26.18787 36.46615 36939 ft 528 kts 121°
2026-05-07 22:41 26.15465 36.53823 36935 ft 521 kts 127°
2026-05-07 22:41 26.11990 36.60868 36938 ft 522 kts 126°
2026-05-07 22:42 26.08498 36.67963 36890 ft 523 kts 127°
2026-05-07 22:42 26.04993 36.75062 36888 ft 523 kts 127°
2026-05-07 22:43 26.01489 36.82148 36888 ft 523 kts 128°
2026-05-07 22:43 25.97983 36.89225 36891 ft 523 kts 128°
2026-05-07 22:44 25.94492 36.96262 36893 ft 523 kts 128°
2026-05-07 22:44 25.90974 37.03340 36893 ft 523 kts 128°
2026-05-07 22:45 25.87457 37.10408 36890 ft 523 kts 128°
2026-05-07 22:45 25.83935 37.17473 36887 ft 523 kts 128°
2026-05-07 22:46 25.80401 37.24552 36887 ft 523 kts 128°
2026-05-07 22:46 25.76898 37.31585 36884 ft 523 kts 128°
2026-05-07 22:47 25.73376 37.38666 36891 ft 523 kts 128°
2026-05-07 22:47 25.69849 37.45741 36876 ft 523 kts 127°
2026-05-07 22:48 25.66323 37.52801 36884 ft 523 kts 128°
2026-05-07 22:48 25.62794 37.59851 36886 ft 524 kts 127°
2026-05-07 22:49 25.59278 37.66872 36892 ft 524 kts 128°
2026-05-07 22:49 25.55733 37.73935 36889 ft 525 kts 128°
2026-05-07 22:50 25.52183 37.80999 36894 ft 525 kts 128°
2026-05-07 22:50 25.48637 37.88046 36888 ft 524 kts 128°
2026-05-07 22:51 25.45072 37.95116 36884 ft 524 kts 128°
2026-05-07 22:51 25.41507 38.02172 36873 ft 525 kts 128°
2026-05-07 22:52 25.37941 38.09226 36928 ft 524 kts 127°
2026-05-07 22:52 25.34403 38.16215 36913 ft 524 kts 127°
2026-05-07 22:53 25.30826 38.23265 36910 ft 524 kts 127°
2026-05-07 22:53 25.27254 38.30296 36931 ft 525 kts 127°
2026-05-07 22:54 25.23696 38.37288 36932 ft 526 kts 127°
2026-05-07 22:54 25.20104 38.44339 36943 ft 526 kts 127°
2026-05-07 22:55 25.16511 38.51381 36946 ft 526 kts 127°
2026-05-07 22:55 25.12922 38.58392 36942 ft 527 kts 127°
2026-05-07 22:56 25.09306 38.65442 36937 ft 527 kts 127°
2026-05-07 22:56 25.05685 38.72494 36932 ft 527 kts 127°
2026-05-07 22:57 25.02087 38.79485 36942 ft 528 kts 127°
2026-05-07 22:57 24.98433 38.86583 36950 ft 528 kts 127°
2026-05-07 22:58 24.94825 38.93581 36960 ft 528 kts 128°
2026-05-07 22:58 24.91191 39.00606 36959 ft 527 kts 128°
2026-05-07 22:59 24.87554 39.07624 36956 ft 527 kts 128°
2026-05-07 22:59 24.83917 39.14636 36954 ft 527 kts 128°
2026-05-07 23:00 24.80280 39.21638 36952 ft 526 kts 128°
2026-05-07 23:00 24.76662 39.28597 36942 ft 526 kts 128°
2026-05-07 23:01 24.73002 39.35626 36941 ft 526 kts 128°
2026-05-07 23:01 24.69382 39.42565 36935 ft 527 kts 128°
2026-05-07 23:02 24.65729 39.49558 36950 ft 527 kts 128°
2026-05-07 23:02 24.62073 39.56545 36955 ft 527 kts 128°
2026-05-07 23:03 24.58409 39.63541 36959 ft 527 kts 128°
2026-05-07 23:03 24.55365 39.70995 36954 ft 543 kts 114°
2026-05-07 23:04 24.53894 39.79175 36959 ft 556 kts 101°
2026-05-07 23:04 24.53118 39.87638 36956 ft 557 kts 102°
2026-05-07 23:05 24.52298 39.96110 36958 ft 557 kts 102°
2026-05-07 23:05 24.51473 40.04577 36962 ft 558 kts 102°
2026-05-07 23:06 24.50650 40.13002 36966 ft 558 kts 102°
2026-05-07 23:06 24.49818 40.21481 36968 ft 558 kts 102°
2026-05-07 23:07 24.48980 40.29972 36970 ft 559 kts 102°
2026-05-07 23:07 24.48137 40.38455 36971 ft 559 kts 102°
2026-05-07 23:08 24.47289 40.46941 36973 ft 559 kts 102°
2026-05-07 23:08 24.46436 40.55430 36973 ft 559 kts 102°
2026-05-07 23:09 24.45585 40.63856 36973 ft 559 kts 102°
2026-05-07 23:09 24.44722 40.72332 36973 ft 559 kts 102°
2026-05-07 23:10 24.43853 40.80814 36972 ft 559 kts 102°
2026-05-07 23:10 24.42979 40.89303 36972 ft 559 kts 102°
2026-05-07 23:11 24.42109 40.97701 36971 ft 559 kts 102°
2026-05-07 23:11 24.41227 41.06176 36970 ft 559 kts 102°
2026-05-07 23:12 24.40341 41.14650 36969 ft 559 kts 102°
2026-05-07 23:12 24.39448 41.23152 36970 ft 559 kts 102°
2026-05-07 23:13 24.38552 41.31633 36968 ft 559 kts 102°
2026-05-07 23:13 24.37657 41.40064 36967 ft 559 kts 102°
2026-05-07 23:14 24.36751 41.48544 36969 ft 560 kts 102°
2026-05-07 23:14 24.35840 41.57035 36970 ft 560 kts 102°
2026-05-07 23:15 24.34925 41.65512 36969 ft 559 kts 102°
2026-05-07 23:15 24.34007 41.73981 36969 ft 559 kts 102°
2026-05-07 23:16 24.33202 41.81016 36966 ft 557 kts 106°
2026-05-07 23:16 24.30971 41.90473 36967 ft 549 kts 113°
2026-05-07 23:17 24.28856 41.98512 36966 ft 549 kts 112°
2026-05-07 23:17 24.26744 42.06555 36968 ft 549 kts 113°
2026-05-07 23:18 24.24979 42.13246 36967 ft 549 kts 113°
2026-05-07 23:18 24.22853 42.21279 36966 ft 548 kts 113°
2026-05-07 23:19 24.20725 42.29304 36967 ft 549 kts 113°
2026-05-07 23:19 24.18591 42.37334 36968 ft 549 kts 113°
2026-05-07 23:20 24.16454 42.45356 36965 ft 549 kts 113°
2026-05-07 23:20 24.14315 42.53369 36966 ft 548 kts 113°
2026-05-07 23:21 24.12179 42.61349 36965 ft 548 kts 113°
2026-05-07 23:21 24.10030 42.69359 36964 ft 548 kts 113°
2026-05-07 23:22 24.07876 42.77372 37015 ft 547 kts 112°
2026-05-07 23:22 24.05720 42.85373 37016 ft 548 kts 112°
2026-05-07 23:23 24.03573 42.93322 37015 ft 548 kts 112°
2026-05-07 23:23 24.01408 43.01318 37016 ft 548 kts 112°
2026-05-07 23:24 23.99241 43.09307 37018 ft 548 kts 113°
2026-05-07 23:24 23.97069 43.17293 37020 ft 548 kts 113°
2026-05-07 23:25 23.94891 43.25283 37021 ft 548 kts 113°
2026-05-07 23:25 23.92709 43.33269 37022 ft 548 kts 113°
2026-05-07 23:26 23.90532 43.41222 37023 ft 549 kts 113°
2026-05-07 23:26 23.88339 43.49213 37024 ft 548 kts 113°
2026-05-07 23:27 23.85039 43.61203 37025 ft 548 kts 113°
2026-05-07 23:27 23.82857 43.69111 37024 ft 548 kts 113°
2026-05-07 23:28 23.80650 43.77095 37025 ft 548 kts 113°
2026-05-07 23:28 23.78451 43.85034 37023 ft 548 kts 112°
2026-05-07 23:29 23.77030 43.93360 37025 ft 559 kts 99°
2026-05-07 23:29 23.76437 44.01832 37022 ft 560 kts 99°
2026-05-07 23:30 23.75805 44.10298 37023 ft 559 kts 99°
2026-05-07 23:30 23.75170 44.18719 37025 ft 559 kts 99°
2026-05-07 23:31 23.74531 44.27173 37024 ft 559 kts 99°
2026-05-07 23:31 23.73886 44.35637 37022 ft 559 kts 99°
2026-05-07 23:32 23.73239 44.44076 37014 ft 554 kts 98°
2026-05-07 23:32 23.72601 44.52377 37021 ft 545 kts 98°
2026-05-07 23:33 23.71956 44.60645 37021 ft 547 kts 98°
2026-05-07 23:33 23.71307 44.68917 37021 ft 547 kts 98°
2026-05-07 23:34 23.70657 44.77162 37021 ft 547 kts 98°
2026-05-07 23:34 23.70001 44.85423 37021 ft 546 kts 98°
2026-05-07 23:35 23.69342 44.93665 37018 ft 545 kts 98°
2026-05-07 23:35 23.68678 45.01913 37015 ft 545 kts 99°
2026-05-07 23:36 23.68009 45.10155 37010 ft 545 kts 99°
2026-05-07 23:36 23.67342 45.18337 37011 ft 544 kts 99°
2026-05-07 23:37 23.66665 45.26568 37010 ft 544 kts 99°
2026-05-07 23:37 23.65986 45.34788 37012 ft 544 kts 99°
2026-05-07 23:38 23.65303 45.43005 37011 ft 544 kts 99°
2026-05-07 23:38 23.64614 45.51226 37009 ft 544 kts 99°
2026-05-07 23:39 23.63922 45.59446 37013 ft 544 kts 99°
2026-05-07 23:39 23.63230 45.67605 37015 ft 543 kts 99°
2026-05-07 23:40 23.62528 45.75815 37016 ft 543 kts 99°
2026-05-07 23:40 23.61824 45.84013 37018 ft 543 kts 99°
2026-05-07 23:41 23.61114 45.92215 37018 ft 543 kts 99°
2026-05-07 23:41 23.60400 46.00425 37018 ft 543 kts 99°
2026-05-07 23:42 23.59683 46.08612 37041 ft 542 kts 99°
2026-05-07 23:42 23.58966 46.16753 37033 ft 542 kts 99°
2026-05-07 23:43 23.58242 46.24930 37030 ft 542 kts 99°
2026-05-07 23:43 23.57513 46.33095 37028 ft 541 kts 99°
2026-05-07 23:44 23.56780 46.41259 37026 ft 540 kts 99°
2026-05-07 23:44 23.56044 46.49419 37017 ft 540 kts 99°
2026-05-07 23:45 23.55306 46.57551 37008 ft 539 kts 99°
2026-05-07 23:45 23.54563 46.65685 37010 ft 539 kts 99°
2026-05-07 23:46 23.53824 46.73756 37015 ft 539 kts 99°
2026-05-07 23:46 23.53072 46.81887 37018 ft 539 kts 99°
2026-05-07 23:47 23.52317 46.90014 37021 ft 538 kts 99°
2026-05-07 23:47 23.51559 46.98128 37022 ft 538 kts 99°
2026-05-07 23:48 23.50796 47.06246 37022 ft 538 kts 99°
2026-05-07 23:48 23.50031 47.14352 37021 ft 538 kts 99°
2026-05-07 23:49 23.49265 47.22414 37019 ft 538 kts 99°
2026-05-07 23:49 23.48491 47.30513 37017 ft 538 kts 100°
2026-05-07 23:50 23.47712 47.38620 37017 ft 537 kts 100°
2026-05-07 23:50 23.46929 47.46728 37018 ft 537 kts 100°
2026-05-07 23:51 23.46145 47.54806 37019 ft 537 kts 100°
2026-05-07 23:51 23.45353 47.62916 37019 ft 537 kts 99°
2026-05-07 23:52 23.44560 47.71005 37033 ft 536 kts 99°
2026-05-07 23:52 23.43769 47.79027 37030 ft 536 kts 99°
2026-05-07 23:53 23.42970 47.87080 37030 ft 535 kts 99°
2026-05-07 23:53 23.42166 47.95153 37028 ft 535 kts 99°
2026-05-07 23:54 23.41359 48.03204 37026 ft 534 kts 99°
2026-05-07 23:54 23.40549 48.11248 37024 ft 534 kts 99°
2026-05-07 23:55 23.39738 48.19250 37023 ft 534 kts 99°
2026-05-07 23:55 23.38920 48.27286 37022 ft 534 kts 99°
2026-05-07 23:56 23.38155 48.35323 37020 ft 535 kts 95°
2026-05-07 23:56 23.37851 48.43405 37019 ft 535 kts 95°
2026-05-07 23:57 23.37527 48.51504 37019 ft 535 kts 95°
2026-05-07 23:57 23.37196 48.59588 37018 ft 534 kts 95°
2026-05-07 23:58 23.36863 48.67617 37018 ft 534 kts 95°
2026-05-07 23:58 23.36525 48.75695 37018 ft 534 kts 95°
2026-05-07 23:59 23.36182 48.83782 37018 ft 534 kts 95°
2026-05-07 23:59 23.35835 48.91856 37021 ft 534 kts 95°
2026-05-08 00:00 23.35483 48.99942 37021 ft 534 kts 95°
2026-05-08 00:00 23.34991 49.08001 37021 ft 531 kts 101°
2026-05-08 00:01 23.33831 49.15940 37020 ft 531 kts 102°
2026-05-08 00:01 23.32705 49.23818 37022 ft 530 kts 101°
2026-05-08 00:02 23.31572 49.31734 37032 ft 530 kts 101°
2026-05-08 00:02 23.30428 49.39663 37029 ft 530 kts 101°
2026-05-08 00:03 23.29279 49.47578 37030 ft 529 kts 101°
2026-05-08 00:03 23.28127 49.55487 37027 ft 529 kts 101°
2026-05-08 00:04 23.27168 49.62048 37025 ft 528 kts 102°
2026-05-08 00:04 23.25822 49.71233 37023 ft 528 kts 102°
2026-05-08 00:05 23.24849 49.77839 37022 ft 528 kts 102°
2026-05-08 00:05 23.23684 49.85731 37022 ft 528 kts 102°
2026-05-08 00:06 23.22525 49.93556 37020 ft 528 kts 102°
2026-05-08 00:06 23.21354 50.01431 37019 ft 527 kts 102°
2026-05-08 00:07 23.20177 50.09314 37020 ft 527 kts 102°
2026-05-08 00:07 23.18999 50.17185 37020 ft 527 kts 102°
2026-05-08 00:08 23.17819 50.25036 37020 ft 527 kts 102°
2026-05-08 00:08 23.16631 50.32916 37020 ft 527 kts 102°
2026-05-08 00:09 23.15447 50.40737 37018 ft 527 kts 102°
2026-05-08 00:09 23.14251 50.48615 37019 ft 527 kts 102°
2026-05-08 00:10 23.13053 50.56483 37019 ft 527 kts 102°
2026-05-08 00:10 23.11859 50.64292 37018 ft 527 kts 102°
2026-05-08 00:11 23.10654 50.72144 37019 ft 527 kts 102°
2026-05-08 00:11 23.09452 50.79956 37019 ft 527 kts 102°
2026-05-08 00:12 23.08835 50.83951 36835 ft 530 kts 102°
2026-05-08 00:12 23.08254 50.87711 36793 ft 523 kts 102°
2026-05-08 00:12 23.07068 50.95379 36801 ft 515 kts 102°
2026-05-08 00:13 23.05872 51.03065 36802 ft 517 kts 102°
2026-05-08 00:13 23.04669 51.10770 36800 ft 517 kts 102°
2026-05-08 00:14 23.03466 51.18463 36801 ft 517 kts 102°
2026-05-08 00:14 23.02258 51.26157 36803 ft 517 kts 102°
2026-05-08 00:15 23.01045 51.33860 36802 ft 516 kts 102°
2026-05-08 00:15 22.99836 51.41507 36798 ft 516 kts 102°
2026-05-08 00:16 22.98620 51.49178 36798 ft 516 kts 102°
2026-05-08 00:16 22.97399 51.56860 36798 ft 516 kts 102°
2026-05-08 00:17 22.96174 51.64532 36797 ft 516 kts 102°
2026-05-08 00:17 22.94945 51.72214 36798 ft 516 kts 102°
2026-05-08 00:18 22.93722 51.79829 36798 ft 516 kts 102°
2026-05-08 00:18 22.92485 51.87509 36796 ft 516 kts 102°
2026-05-08 00:19 22.91244 51.95191 36801 ft 516 kts 102°
2026-05-08 00:19 22.90002 52.02851 36797 ft 516 kts 103°
2026-05-08 00:20 22.88762 52.10477 36797 ft 516 kts 103°
2026-05-08 00:20 22.87503 52.18194 36801 ft 516 kts 103°
2026-05-08 00:21 22.86257 52.25812 36798 ft 516 kts 103°
2026-05-08 00:21 22.84998 52.33485 36801 ft 516 kts 103°
2026-05-08 00:22 22.83740 52.41135 36837 ft 514 kts 102°
2026-05-08 00:22 22.82544 52.48779 36830 ft 514 kts 98°
2026-05-08 00:23 22.82250 52.56482 36817 ft 514 kts 93°
2026-05-08 00:23 22.82061 52.64234 36814 ft 514 kts 93°
2026-05-08 00:24 22.81859 52.71973 36812 ft 513 kts 93°
2026-05-08 00:24 22.81653 52.79714 36805 ft 512 kts 93°
2026-05-08 00:25 22.81445 52.87405 36801 ft 512 kts 93°
2026-05-08 00:25 22.81233 52.95120 36799 ft 512 kts 93°
2026-05-08 00:26 22.81018 53.02838 36796 ft 511 kts 94°
2026-05-08 00:26 22.80800 53.10490 36794 ft 511 kts 94°
2026-05-08 00:27 22.80578 53.18195 36796 ft 511 kts 94°
2026-05-08 00:27 22.80351 53.25895 36793 ft 511 kts 94°
2026-05-08 00:28 22.80122 53.33588 36795 ft 511 kts 94°
2026-05-08 00:28 22.79888 53.41293 36794 ft 511 kts 94°
2026-05-08 00:29 22.79653 53.48926 36792 ft 511 kts 94°
2026-05-08 00:29 22.79411 53.56634 36792 ft 511 kts 94°
2026-05-08 00:30 22.79167 53.64324 36795 ft 511 kts 94°
2026-05-08 00:30 22.78919 53.72019 36795 ft 511 kts 94°
2026-05-08 00:31 22.78666 53.79710 36792 ft 511 kts 94°
2026-05-08 00:31 22.78411 53.87405 36793 ft 511 kts 94°
2026-05-08 00:32 22.78156 53.95101 36799 ft 511 kts 92°
2026-05-08 00:32 22.78694 54.02750 36800 ft 514 kts 81°
2026-05-08 00:33 22.80220 54.10317 36801 ft 514 kts 78°
2026-05-08 00:33 22.81759 54.17904 36798 ft 514 kts 78°
2026-05-08 00:34 22.83290 54.25474 36800 ft 514 kts 78°
2026-05-08 00:34 22.84821 54.33046 36801 ft 514 kts 78°
2026-05-08 00:35 22.86349 54.40619 36802 ft 514 kts 78°
2026-05-08 00:35 22.87872 54.48186 36802 ft 514 kts 78°
2026-05-08 00:36 22.89386 54.55723 36801 ft 514 kts 79°
2026-05-08 00:36 22.90907 54.63323 36800 ft 514 kts 79°
2026-05-08 00:37 22.92422 54.70905 36801 ft 514 kts 79°
2026-05-08 00:38 22.94678 54.82241 36800 ft 514 kts 79°
2026-05-08 00:38 22.96184 54.89827 36804 ft 514 kts 79°
2026-05-08 00:39 22.97686 54.97420 36802 ft 514 kts 79°
2026-05-08 00:39 22.99188 55.05029 36801 ft 514 kts 79°
2026-05-08 00:40 23.00715 55.12560 36797 ft 515 kts 74°
2026-05-08 00:40 23.01994 55.16190 36800 ft 516 kts 63°
2026-05-08 00:40 23.03856 55.19509 36799 ft 516 kts 52°
2026-05-08 00:41 23.09040 55.24825 36800 ft 513 kts 31°
2026-05-08 00:41 23.15554 55.27886 36803 ft 509 kts 13°
2026-05-08 00:42 23.22349 55.29862 36854 ft 508 kts 13°
2026-05-08 00:42 23.29178 55.31881 36854 ft 508 kts 13°
2026-05-08 00:43 23.35997 55.33897 36855 ft 508 kts 13°
2026-05-08 00:43 23.42826 55.35914 36856 ft 508 kts 13°
2026-05-08 00:44 23.49654 55.37934 36856 ft 508 kts 13°
2026-05-08 00:44 23.56478 55.39953 36856 ft 508 kts 13°
2026-05-08 00:45 23.63309 55.41974 36857 ft 508 kts 13°
2026-05-08 00:45 23.70133 55.43997 36856 ft 508 kts 13°
2026-05-08 00:46 23.76939 55.46016 36856 ft 509 kts 13°
2026-05-08 00:46 23.83775 55.48047 36857 ft 509 kts 13°
2026-05-08 00:47 23.90602 55.50074 36857 ft 509 kts 13°
2026-05-08 00:47 23.97420 55.52171 36854 ft 510 kts 18°
2026-05-08 00:48 24.03653 55.55888 36856 ft 515 kts 37°
2026-05-08 00:48 24.08980 55.61086 36855 ft 516 kts 41°
2026-05-08 00:49 24.14311 55.66348 36856 ft 516 kts 41°
2026-05-08 00:49 24.19635 55.71618 36856 ft 516 kts 41°
2026-05-08 00:50 24.24957 55.76903 36854 ft 516 kts 41°
2026-05-08 00:50 24.30275 55.82191 36854 ft 516 kts 41°
2026-05-08 00:51 24.35596 55.87489 36856 ft 516 kts 41°
2026-05-08 00:51 24.40927 55.92802 36848 ft 517 kts 41°
2026-05-08 00:52 24.46219 55.98081 36814 ft 518 kts 40°
2026-05-08 00:52 24.51567 56.03421 36814 ft 519 kts 40°
2026-05-08 00:53 24.56937 56.08766 36811 ft 520 kts 37°
2026-05-08 00:53 24.59866 56.10991 36817 ft 517 kts 26°
2026-05-08 00:53 24.63132 56.12587 36816 ft 513 kts 15°
2026-05-08 00:54 24.68912 56.13863 36845 ft 508 kts
2026-05-08 00:54 24.75909 56.14940 36843 ft 505 kts 359°
2026-05-08 00:54 24.79401 56.14778 36854 ft 499 kts 348°
2026-05-08 00:55 24.82765 56.13915 36856 ft 493 kts 337°
2026-05-08 00:55 24.89030 56.10919 36854 ft 491 kts 332°
2026-05-08 00:56 24.95203 56.07688 36855 ft 487 kts 324°
2026-05-08 00:56 25.00408 56.03095 36861 ft 479 kts 310°
2026-05-08 00:57 25.04853 55.97637 36868 ft 478 kts 308°
2026-05-08 00:57 25.09324 55.92183 36874 ft 479 kts 308°
2026-05-08 00:58 25.13778 55.86724 36874 ft 478 kts 308°
2026-05-08 00:58 25.17663 55.80826 36871 ft 473 kts 298°
2026-05-08 00:59 25.21073 55.74669 36878 ft 473 kts 298°
2026-05-08 00:59 25.24529 55.68484 36875 ft 473 kts 298°
2026-05-08 01:00 25.27812 55.62187 36872 ft 469 kts 289°
2026-05-08 01:00 25.28739 55.58756 36871 ft 464 kts 278°
2026-05-08 01:00 25.28999 55.55272 36814 ft 447 kts 266°
2026-05-08 01:00 25.28623 55.51922 36547 ft 436 kts 258°
2026-05-08 01:01 25.28301 55.48627 36029 ft 434 kts 269°
2026-05-08 01:01 25.28638 55.45314 35436 ft 436 kts 281°
2026-05-08 01:01 25.29633 55.42151 34838 ft 439 kts 293°
2026-05-08 01:01 25.31241 55.39273 34155 ft 441 kts 306°
2026-05-08 01:02 25.33384 55.36857 33516 ft 440 kts 318°
2026-05-08 01:02 25.35937 55.35038 32925 ft 438 kts 331°
2026-05-08 01:02 25.38812 55.33894 32320 ft 438 kts 344°
2026-05-08 01:02 25.41780 55.33521 31742 ft 438 kts 358°
2026-05-08 01:03 25.44849 55.33953 31123 ft 438 kts 12°
2026-05-08 01:03 25.47648 55.35165 30537 ft 438 kts 27°
2026-05-08 01:03 25.50118 55.37132 29933 ft 437 kts 42°
2026-05-08 01:03 25.52043 55.39725 29339 ft 435 kts 58°
2026-05-08 01:04 25.53273 55.42755 28740 ft 430 kts 75°
2026-05-08 01:04 25.53715 55.45993 28136 ft 423 kts 92°
2026-05-08 01:04 25.53335 55.49183 27539 ft 413 kts 110°
2026-05-08 01:04 25.52182 55.52043 26937 ft 402 kts 125°
2026-05-08 01:05 25.50673 55.54622 26346 ft 396 kts 126°
2026-05-08 01:05 25.49155 55.57139 25743 ft 392 kts 126°
2026-05-08 01:05 25.47637 55.59625 25150 ft 386 kts 128°
2026-05-08 01:05 25.45801 55.61718 24542 ft 375 kts 148°
2026-05-08 01:06 25.43504 55.62979 23936 ft 366 kts 167°
2026-05-08 01:06 25.41022 55.63256 23468 ft 354 kts 189°
2026-05-08 01:06 25.38764 55.62535 23304 ft 334 kts 208°
2026-05-08 01:06 25.36765 55.61360 23152 ft 317 kts 208°
2026-05-08 01:07 25.34783 55.60440 23016 ft 301 kts 197°
2026-05-08 01:07 25.32810 55.59811 22719 ft 292 kts 196°
2026-05-08 01:07 25.30855 55.59210 22424 ft 289 kts 196°
2026-05-08 01:07 25.28899 55.58729 22151 ft 288 kts 183°
2026-05-08 01:08 25.26943 55.59074 21992 ft 284 kts 160°
2026-05-08 01:08 25.25150 55.59968 21824 ft 280 kts 154°
2026-05-08 01:08 25.23451 55.60964 21656 ft 273 kts 153°
2026-05-08 01:08 25.21793 55.62019 21315 ft 276 kts 150°
2026-05-08 01:09 25.20200 55.63187 21102 ft 274 kts 145°
2026-05-08 01:09 25.18727 55.64498 20944 ft 270 kts 139°
2026-05-08 01:09 25.17409 55.65954 20756 ft 267 kts 133°
2026-05-08 01:09 25.16257 55.67559 20504 ft 267 kts 126°
2026-05-08 01:10 25.15270 55.69262 20259 ft 265 kts 129°
2026-05-08 01:10 25.13913 55.70574 19977 ft 260 kts 157°
2026-05-08 01:10 25.12178 55.70997 19688 ft 257 kts 185°
2026-05-08 01:10 25.10492 55.70437 19416 ft 255 kts 213°
2026-05-08 01:11 25.09297 55.69049 19258 ft 252 kts 242°
2026-05-08 01:11 25.08865 55.67176 18977 ft 256 kts 270°
2026-05-08 01:11 25.09324 55.65279 18667 ft 261 kts 300°
2026-05-08 01:11 25.10552 55.63808 18376 ft 263 kts 319°
2026-05-08 01:12 25.12128 55.62792 18088 ft 264 kts 341°
2026-05-08 01:12 25.13931 55.62448 17811 ft 263 kts 356°
2026-05-08 01:12 25.15751 55.62304 17553 ft 262 kts 356°
2026-05-08 01:12 25.17572 55.62207 17302 ft 261 kts
2026-05-08 01:13 25.19357 55.62326 17052 ft 259 kts
2026-05-08 01:13 25.21149 55.62476 16802 ft 258 kts
2026-05-08 01:13 25.22936 55.62623 16553 ft 257 kts
2026-05-08 01:13 25.24719 55.62766 16300 ft 256 kts
2026-05-08 01:14 25.26488 55.62905 16051 ft 255 kts
2026-05-08 01:14 25.28253 55.63041 15795 ft 253 kts
2026-05-08 01:14 25.30006 55.63173 15536 ft 252 kts
2026-05-08 01:14 25.31752 55.63302 15294 ft 251 kts
2026-05-08 01:15 25.33490 55.63427 15046 ft 250 kts
2026-05-08 01:15 25.35223 55.63549 14794 ft 248 kts
2026-05-08 01:15 25.36944 55.63667 14543 ft 247 kts
2026-05-08 01:15 25.38658 55.63783 14300 ft 246 kts
2026-05-08 01:16 25.40364 55.63896 14045 ft 245 kts
2026-05-08 01:16 25.42064 55.64006 13805 ft 244 kts
2026-05-08 01:16 25.43754 55.64109 13546 ft 243 kts
2026-05-08 01:16 25.45422 55.64207 13319 ft 242 kts
2026-05-08 01:17 25.47105 55.64302 13073 ft 241 kts
2026-05-08 01:17 25.48776 55.64396 12838 ft 239 kts
2026-05-08 01:17 25.50436 55.64486 12604 ft 238 kts
2026-05-08 01:17 25.52086 55.64574 12369 ft 237 kts
2026-05-08 01:18 25.53727 55.64660 12138 ft 236 kts
2026-05-08 01:18 25.55363 55.64743 11915 ft 234 kts
2026-05-08 01:18 25.56989 55.64824 11673 ft 233 kts
2026-05-08 01:18 25.58608 55.64903 11447 ft 232 kts
2026-05-08 01:19 25.60196 55.64980 11226 ft 231 kts
2026-05-08 01:19 25.61796 55.65055 10988 ft 230 kts
2026-05-08 01:19 25.63392 55.65129 10771 ft 229 kts
2026-05-08 01:19 25.64980 55.65200 10544 ft 227 kts
2026-05-08 01:20 25.66557 55.65271 10324 ft 226 kts
2026-05-08 01:20 25.68128 55.65340 10109 ft 225 kts
2026-05-08 01:20 25.69689 55.65408 9871 ft 224 kts
2026-05-08 01:20 25.71247 55.65476 9647 ft 224 kts
2026-05-08 01:21 25.72811 55.65545 9400 ft 225 kts
2026-05-08 01:21 25.74351 55.65617 9137 ft 226 kts
2026-05-08 01:21 25.75927 55.65696 8881 ft 226 kts
2026-05-08 01:21 25.77499 55.65782 8644 ft 227 kts
2026-05-08 01:22 25.79076 55.65878 8403 ft 227 kts
2026-05-08 01:22 25.80654 55.65983 8161 ft 227 kts
2026-05-08 01:22 25.82234 55.66100 7936 ft 227 kts
2026-05-08 01:22 25.83808 55.66228 7715 ft 227 kts
2026-05-08 01:23 25.85383 55.66367 7484 ft 226 kts
2026-05-08 01:23 25.86951 55.66518 7283 ft 226 kts
2026-05-08 01:23 25.88508 55.66679 7088 ft 224 kts
2026-05-08 01:23 25.90054 55.66850 6877 ft 223 kts
2026-05-08 01:24 25.91589 55.67029 6801 ft 221 kts
2026-05-08 01:24 25.93049 55.67514 6813 ft 228 kts 34°
2026-05-08 01:24 25.94111 55.68819 6808 ft 231 kts 66°
2026-05-08 01:24 25.94419 55.70537 6804 ft 227 kts 99°
2026-05-08 01:25 25.93853 55.72130 6808 ft 224 kts 133°
2026-05-08 01:25 25.92590 55.73125 6801 ft 225 kts 164°
2026-05-08 01:25 25.91043 55.73284 6878 ft 224 kts 183°
2026-05-08 01:25 25.89480 55.73256 6966 ft 225 kts 181°
2026-05-08 01:26 25.87918 55.73266 7064 ft 225 kts 180°
2026-05-08 01:26 25.86353 55.73285 7150 ft 225 kts 180°
2026-05-08 01:26 25.84749 55.73304 7278 ft 234 kts 180°
2026-05-08 01:26 25.83127 55.73320 7315 ft 237 kts 180°
2026-05-08 01:27 25.81481 55.73334 7267 ft 235 kts 180°
2026-05-08 01:27 25.79841 55.73347 7172 ft 233 kts 180°
2026-05-08 01:27 25.78224 55.73360 7029 ft 233 kts 180°
2026-05-08 01:27 25.76592 55.73373 7030 ft 235 kts 180°
2026-05-08 01:28 25.74953 55.73385 7028 ft 236 kts 180°
2026-05-08 01:28 25.73315 55.73397 7029 ft 236 kts 180°
2026-05-08 01:28 25.71676 55.73410 7029 ft 236 kts 180°
2026-05-08 01:28 25.70056 55.73422 7028 ft 235 kts 180°
2026-05-08 01:29 25.68411 55.73435 7029 ft 235 kts 180°
2026-05-08 01:29 25.66769 55.73447 7028 ft 235 kts 180°
2026-05-08 01:29 25.65131 55.73460 7027 ft 235 kts 180°
2026-05-08 01:29 25.63494 55.73472 7028 ft 235 kts 180°
2026-05-08 01:30 25.61853 55.73485 7027 ft 235 kts 180°
2026-05-08 01:30 25.60213 55.73497 7028 ft 235 kts 180°
2026-05-08 01:30 25.58577 55.73510 7027 ft 235 kts 180°
2026-05-08 01:30 25.56962 55.73315 7029 ft 235 kts 201°
2026-05-08 01:31 25.55505 55.72504 7027 ft 235 kts 208°
2026-05-08 01:31 25.54081 55.71648 7026 ft 235 kts 208°
2026-05-08 01:31 25.52643 55.70788 7027 ft 235 kts 208°
2026-05-08 01:31 25.51200 55.69933 7026 ft 235 kts 207°
2026-05-08 01:32 25.49752 55.69081 7028 ft 235 kts 207°
2026-05-08 01:32 25.48308 55.68234 7027 ft 235 kts 207°
2026-05-08 01:32 25.46865 55.67389 7027 ft 234 kts 207°
2026-05-08 01:32 25.45456 55.66564 7032 ft 224 kts 207°
2026-05-08 01:33 25.44083 55.65760 7020 ft 224 kts 207°
2026-05-08 01:33 25.42705 55.64953 7029 ft 224 kts 207°
2026-05-08 01:33 25.41327 55.64147 7028 ft 224 kts 207°
2026-05-08 01:33 25.39948 55.63340 7026 ft 224 kts 207°
2026-05-08 01:34 25.38566 55.62532 7028 ft 224 kts 207°
2026-05-08 01:34 25.37208 55.61737 7028 ft 224 kts 207°
2026-05-08 01:34 25.35831 55.60932 7027 ft 224 kts 207°
2026-05-08 01:34 25.34450 55.60125 7025 ft 224 kts 207°
2026-05-08 01:35 25.33077 55.59322 7028 ft 224 kts 207°
2026-05-08 01:35 25.31689 55.58511 7028 ft 224 kts 207°
2026-05-08 01:35 25.30311 55.57701 7027 ft 224 kts 210°
2026-05-08 01:35 25.28978 55.56798 7027 ft 224 kts 211°
2026-05-08 01:36 25.27652 55.55901 7028 ft 224 kts 211°
2026-05-08 01:36 25.26316 55.55008 7027 ft 224 kts 208°
2026-05-08 01:36 25.24823 55.54598 7030 ft 225 kts 177°
2026-05-08 01:36 25.23371 55.55145 7029 ft 228 kts 146°
2026-05-08 01:37 25.22349 55.56492 7033 ft 232 kts 123°
2026-05-08 01:37 25.21526 55.58035 7028 ft 233 kts 123°
2026-05-08 01:37 25.20685 55.59561 7027 ft 232 kts 124°
2026-05-08 01:37 25.19841 55.61074 7027 ft 232 kts 124°
2026-05-08 01:38 25.18988 55.62601 7027 ft 232 kts 124°
2026-05-08 01:38 25.18142 55.64116 7029 ft 232 kts 124°
2026-05-08 01:38 25.17291 55.65642 6938 ft 233 kts 124°
2026-05-08 01:38 25.16456 55.67143 6724 ft 226 kts 124°
2026-05-08 01:39 25.15646 55.68600 6566 ft 219 kts 124°
2026-05-08 01:39 25.14891 55.69960 6423 ft 198 kts 124°
2026-05-08 01:39 25.14177 55.71241 6257 ft 196 kts 125°
2026-05-08 01:39 25.13455 55.72529 6075 ft 199 kts 125°
2026-05-08 01:40 25.12731 55.73820 5907 ft 201 kts 124°
2026-05-08 01:40 25.11995 55.75135 5727 ft 202 kts 124°
2026-05-08 01:40 25.11256 55.76456 5558 ft 203 kts 124°
2026-05-08 01:40 25.10515 55.77783 5375 ft 203 kts 124°
2026-05-08 01:41 25.09771 55.79114 5208 ft 203 kts 124°
2026-05-08 01:41 25.09028 55.80442 5023 ft 204 kts 124°
2026-05-08 01:41 25.08282 55.81774 4858 ft 204 kts 123°
2026-05-08 01:41 25.07539 55.83102 4675 ft 203 kts 124°
2026-05-08 01:42 25.06800 55.84423 4552 ft 201 kts 124°
2026-05-08 01:42 25.05849 55.85506 4373 ft 196 kts 156°
2026-05-08 01:42 25.04573 55.85734 4238 ft 188 kts 194°
2026-05-08 01:42 25.03419 55.85118 4102 ft 185 kts 216°
2026-05-08 01:43 25.02369 55.84305 3952 ft 184 kts 217°
2026-05-08 01:43 25.01324 55.83502 3804 ft 182 kts 216°
2026-05-08 01:43 25.00708 55.82882 3690 ft 182 kts 235°
2026-05-08 01:43 25.00374 55.81564 3541 ft 184 kts 272°
2026-05-08 01:44 25.00838 55.80311 3398 ft 173 kts 301°
2026-05-08 01:44 25.01494 55.79225 3247 ft 168 kts 299°
2026-05-08 01:44 25.02107 55.78133 3100 ft 167 kts 298°
2026-05-08 01:44 25.02707 55.77034 2940 ft 167 kts 298°
2026-05-08 01:45 25.03310 55.75932 2792 ft 168 kts 298°
2026-05-08 01:45 25.03910 55.74846 2730 ft 168 kts 298°
2026-05-08 01:45 25.04520 55.73750 2641 ft 168 kts 298°
2026-05-08 01:45 25.05134 55.72651 2563 ft 168 kts 298°
2026-05-08 01:46 25.05757 55.71536 2489 ft 168 kts 298°
2026-05-08 01:46 25.06361 55.70451 2413 ft 169 kts 300°
2026-05-08 01:46 25.06981 55.69341 2339 ft 170 kts 300°
2026-05-08 01:46 25.07604 55.68228 2266 ft 170 kts 300°
2026-05-08 01:47 25.08228 55.67117 2194 ft 170 kts 301°
2026-05-08 01:47 25.08875 55.66022 2115 ft 170 kts 301°
2026-05-08 01:47 25.09510 55.64919 2047 ft 170 kts 300°
2026-05-08 01:48 25.10746 55.62695 2000 ft 170 kts 300°
2026-05-08 01:48 25.11353 55.61598 2000 ft 169 kts 300°
2026-05-08 01:48 25.11968 55.60489 2002 ft 169 kts 300°
2026-05-08 01:48 25.12580 55.59383 1999 ft 169 kts 299°
2026-05-08 01:49 25.13194 55.58274 2000 ft 169 kts 300°
2026-05-08 01:49 25.13808 55.57167 2001 ft 169 kts 300°
2026-05-08 01:49 25.14424 55.56054 2000 ft 169 kts 299°
2026-05-08 01:49 25.15037 55.54946 1999 ft 169 kts 299°
2026-05-08 01:50 25.15650 55.53836 1999 ft 169 kts 300°
2026-05-08 01:50 25.16266 55.52726 2002 ft 169 kts 300°
2026-05-08 01:50 25.16878 55.51618 1999 ft 169 kts 300°
2026-05-08 01:50 25.17489 55.50516 1997 ft 163 kts 300°
2026-05-08 01:51 25.18059 55.49487 1999 ft 156 kts 299°
2026-05-08 01:51 25.18620 55.48469 1946 ft 155 kts 299°
2026-05-08 01:51 25.19176 55.47467 1730 ft 150 kts 299°
2026-05-08 01:51 25.19715 55.46490 1528 ft 148 kts 299°
2026-05-08 01:52 25.20250 55.45525 1348 ft 147 kts 299°
2026-05-08 01:52 25.20782 55.44562 1147 ft 146 kts 299°
2026-05-08 01:52 25.21310 55.43607 948 ft 145 kts 300°
2026-05-08 01:52 25.21831 55.42665 725 ft 145 kts 299°
2026-05-08 01:53 25.22355 55.41720 525 ft 144 kts 300°
2026-05-08 01:53 25.22874 55.40788 336 ft 143 kts 300°
2026-05-08 01:53 25.23396 55.39844 164 ft 143 kts 300°
2026-05-08 01:53 25.23899 55.38925 35 ft 131 kts 300°
2026-05-08 01:54 25.24289 55.38227 37 ft 82 kts 302°
2026-05-08 01:54 25.24485 55.37874 35 ft 24 kts 301°
2026-05-08 01:54 25.24560 55.37723 33 ft 24 kts 297°
2026-05-08 01:54 25.24609 55.37562 33 ft 19 kts 276°
2026-05-08 01:55 25.24614 55.37441 30 ft 13 kts 272°
2026-05-08 01:55 25.24618 55.37355 29 ft 9 kts 274°
2026-05-08 01:55 25.24624 55.37288 28 ft 7 kts 281°
2026-05-08 01:55 25.24632 55.37256 28 ft 6 kts 290°
2026-05-08 01:56 25.24651 55.37214 28 ft 0 kts 301°
2026-05-08 01:56 25.24662 55.37194 28 ft 7 kts 301°
2026-05-08 01:57 25.24686 55.37150 28 ft 0 kts 301°
2026-05-08 01:57 25.24690 55.37142 28 ft 0 kts 301°
2026-05-08 01:57 25.24694 55.37134 28 ft 4 kts 301°
2026-05-08 01:58 25.24722 55.37084 28 ft 11 kts 302°
2026-05-08 01:58 25.24766 55.36998 28 ft 13 kts 282°
2026-05-08 01:58 25.24741 55.36933 27 ft 7 kts 197°
2026-05-08 01:58 25.24705 55.36941 27 ft 7 kts 143°
2026-05-08 01:59 25.24668 55.37002 27 ft 10 kts 118°
2026-05-08 01:59 25.24636 55.37061 27 ft 8 kts 123°
2026-05-08 01:59 25.24606 55.37111 27 ft 8 kts 123°
2026-05-08 01:59 25.24578 55.37160 27 ft 7 kts 122°
2026-05-08 02:00 25.24552 55.37206 27 ft 7 kts 121°
2026-05-08 02:00 25.24531 55.37241 27 ft 2 kts 130°
2026-05-08 02:00 25.24519 55.37250 27 ft 3 kts 163°
2026-05-08 02:00 25.24498 55.37251 27 ft 4 kts 192°
2026-05-08 02:01 25.24474 55.37242 26 ft 0 kts 209°
2026-05-08 02:01 25.24468 55.37238 26 ft 2 kts 211°
2026-05-08 02:01 25.24461 55.37234 26 ft 2 kts 211°
2026-05-08 02:01 25.24460 55.37232 26 ft 0 kts 211°
2026-05-08 02:02 25.24454 55.37229 26 ft 2 kts 211°
2026-05-08 02:02 25.24449 55.37225 26 ft 1 kts 211°
2026-05-08 02:02 25.24444 55.37221 26 ft 1 kts 211°
2026-05-08 02:02 25.24438 55.37217 26 ft 1 kts 211°
2026-05-08 02:03 25.24435 55.37216 26 ft 0 kts 211°
2026-05-08 02:03 25.24434 55.37215 26 ft 0 kts 211°